This is the latest recevied weather packets stored in our database for station/object SR8WXB-1. If no packets are shown the sender has not sent any weather packets the latest 1 day(s).
| Time | Temp. | Humidity | Pressure | Rain* | Wind** | Luminosity | Snow |
|---|---|---|---|---|---|---|---|
| 1777962722 | 15.56° C | 100% | 942.3 hPa | - | 4.92 m/s, 235° | - | - |
| 1777962478 | 15.56° C | 100% | 942.3 hPa | - | 4.02 m/s, 237° | - | - |
| 1777962238 | 15.56° C | 100% | 942.3 hPa | - | 4.02 m/s, 235° | - | - |
| 1777961998 | 15° C | 100% | 942.3 hPa | - | 4.47 m/s, 232° | - | - |
| 1777961755 | 15° C | 100% | 942.3 hPa | - | 4.47 m/s, 234° | - | - |
| 1777961515 | 15° C | 100% | 942.3 hPa | - | 4.92 m/s, 233° | - | - |
| 1777961275 | 14.44° C | 100% | 942.3 hPa | - | 4.02 m/s, 235° | - | - |
| 1777961035 | 14.44° C | 100% | 942.3 hPa | - | 4.02 m/s, 235° | - | - |
| 1777960795 | 14.44° C | 100% | 942.3 hPa | - | 3.58 m/s, 236° | - | - |
| 1777960552 | 13.89° C | 100% | 942.3 hPa | - | 3.58 m/s, 237° | - | - |
| 1777960312 | 13.89° C | 100% | 942.3 hPa | - | 3.13 m/s, 241° | - | - |
| 1777960064 | 13.89° C | 100% | 942.4 hPa | - | 3.58 m/s, 238° | - | - |
| 1777959824 | 13.89° C | 100% | 942.3 hPa | - | 3.58 m/s, 243° | - | - |
| 1777959584 | 13.89° C | 100% | 942.4 hPa | - | 3.58 m/s, 241° | - | - |
| 1777959341 | 13.89° C | 100% | 942.4 hPa | - | 4.92 m/s, 244° | - | - |
| 1777959101 | 13.33° C | 100% | 942.4 hPa | - | 4.02 m/s, 240° | - | - |
| 1777958861 | 13.33° C | 100% | 942.4 hPa | - | 4.47 m/s, 238° | - | - |
| 1777958621 | 13.33° C | 100% | 942.4 hPa | - | 4.47 m/s, 240° | - | - |
| 1777958381 | 13.33° C | 100% | 942.4 hPa | - | 4.47 m/s, 239° | - | - |
| 1777958138 | 12.78° C | 100% | 942.4 hPa | - | 4.92 m/s, 242° | - | - |
| 1777957906 | 12.78° C | - | - | - | 5.36 m/s, 243° | - | - |
| 1777957898 | 12.78° C | 100% | 942.4 hPa | - | 5.36 m/s, 243° | - | - |
| 1777957658 | 12.78° C | 100% | 942.3 hPa | - | 4.92 m/s, 242° | - | - |
| 1777957419 | 12.78° C | 100% | 942.3 hPa | - | 4.92 m/s, 241° | - | - |
| 1777957253 | 12.78° C | 100% | 942.3 hPa | - | 4.92 m/s, 242° | - | - |
* Rain since midnight (hover to see other rain measurements)
** Current wind speed in m/s (hover to see current wind gust speed)